Location: Newark
(25.4297°S, 49.2719°W)
Time: 02:21:04
(UTC+00:00)

Tiangong - Pass Details

Date: 26 June 2021
Orbit: 373 x 386 km, 41.5° (Epoch: 02 August)

Event Time Altitude Azimuth Distance (km) Brightness Sun altitude
Rises 22:28:42 0° 250° (WSW) 2,253 5.8 -24.5°
Reaches altitude 10° 22:31:04 10° 266° (W) 1,392 4.8 -25.0°
Enters shadow 22:33:25 22° 314° (NW) 894 3.5 -25.5°
